OneWeb SL0677

operational
NORAD ID: 56713 Int'l Des: 2023-068 Owner: ONEWEBN Country: UK Constellation: oneweb
LEOCIRCULARPOLARONEWEB_TYPE

About OneWeb SL0677

Description loading...

Live Position

Loading 3D Globe...

Upcoming Passes

Altitude History

Altitude vs Time

uPlot chart will show altitude changes over time

Two-Line Element Set

1 56713U 23068D 26102.20257272 .00001025 00000-0 24889-2 0 9990
2 56713 87.9134 287.6079 0001331 101.8042 258.3241 13.20767385141091
Epoch: Apr 12, 2026 • Age: 12 hours

Current Status

Altitude 1202.2 km
Velocity 7.25 km/s
Sub-Earth Point -50.23°S, 175.95°W
Launch Date May 20, 2023
Age 2.8 years
Type internet

Technical Details

Classification Payload
Mass 148.00 kg
Dry Mass 140.00 kg
Total Mass 148.00 kg
Length 1.30 m
Diameter 1.00 m
Span 5.00 m
Shape Trapezoid+2 pan
Manufacturer ONEWUS
Bus Type ARROW
Phase Status In Orbit
Owner/State ONEWEBN/UK

Large Constellations

Loading constellations...